KLM380 EGSS-EGPF

Flight info

Callsign KLM380
Flight time 0h 57m
Altitude 32000
Route UTAVA Q75 BUZAD T420 TNT UN57 POL UN601 RIBEL DCT ASLIB
Aircraft A21N/M-SDE2E3FGHIRWXY/LB1

Departure

Time 2026-05-05 16:45
Airport London Stansted Airport (EGSS)

Arrival

Time 2026-05-05 17:43
Airport Glasgow Airport (EGPF)
Time Latitude Longitude Altitude Speed Heading
2026-05-05 16:24 51.89185 0.25440 356 ft 0 kts 64°
2026-05-05 16:36 51.89177 0.25413 355 ft 5 kts 64°
2026-05-05 16:36 51.89156 0.25367 356 ft 5 kts 26°
2026-05-05 16:36 51.89123 0.25374 353 ft 5 kts 312°
2026-05-05 16:36 51.89122 0.25376 353 ft 0 kts 312°
2026-05-05 16:39 51.89125 0.25370 353 ft 6 kts 312°
2026-05-05 16:39 51.89184 0.25265 352 ft 14 kts 312°
2026-05-05 16:39 51.89236 0.25139 356 ft 13 kts 274°
2026-05-05 16:39 51.89168 0.24968 353 ft 20 kts 222°
2026-05-05 16:40 51.89064 0.24813 348 ft 20 kts 223°
2026-05-05 16:40 51.88960 0.24656 349 ft 20 kts 223°
2026-05-05 16:40 51.88858 0.24501 354 ft 20 kts 223°
2026-05-05 16:40 51.88758 0.24352 352 ft 20 kts 223°
2026-05-05 16:41 51.88657 0.24201 350 ft 20 kts 223°
2026-05-05 16:41 51.88540 0.24024 352 ft 28 kts 222°
2026-05-05 16:41 51.88399 0.23813 343 ft 28 kts 223°
2026-05-05 16:41 51.88258 0.23601 349 ft 28 kts 223°
2026-05-05 16:42 51.88116 0.23390 338 ft 27 kts 224°
2026-05-05 16:42 51.87977 0.23180 336 ft 27 kts 223°
2026-05-05 16:42 51.87841 0.22977 336 ft 26 kts 223°
2026-05-05 16:42 51.87707 0.22777 337 ft 26 kts 223°
2026-05-05 16:43 51.87577 0.22581 339 ft 26 kts 223°
2026-05-05 16:43 51.87444 0.22383 335 ft 25 kts 222°
2026-05-05 16:43 51.87418 0.22175 333 ft 19 kts 305°
2026-05-05 16:43 51.87499 0.22022 330 ft 8 kts 330°
2026-05-05 16:44 51.87524 0.22025 329 ft 3 kts 33°
2026-05-05 16:44 51.87549 0.22055 331 ft 0 kts 45°
2026-05-05 16:44 51.87565 0.22081 328 ft 21 kts 45°
2026-05-05 16:45 51.87826 0.22471 336 ft 79 kts 43°
2026-05-05 16:45 51.88377 0.23297 334 ft 138 kts 43°
2026-05-05 16:45 51.89188 0.24463 599 ft 157 kts 45°
2026-05-05 16:45 51.89999 0.25678 1179 ft 160 kts 43°
2026-05-05 16:46 51.90781 0.26864 1934 ft 149 kts 42°
2026-05-05 16:46 51.91584 0.28080 2355 ft 172 kts 41°
2026-05-05 16:46 51.92672 0.29177 2603 ft 200 kts 16°
2026-05-05 16:46 51.94126 0.28951 2852 ft 231 kts 334°
2026-05-05 16:47 51.95479 0.27291 3366 ft 253 kts 319°
2026-05-05 16:47 51.96652 0.25128 4215 ft 259 kts 303°
2026-05-05 16:47 51.97284 0.22383 4783 ft 263 kts 285°
2026-05-05 16:47 51.97622 0.19455 4975 ft 265 kts 281°
2026-05-05 16:48 51.97912 0.16492 4994 ft 267 kts 281°
2026-05-05 16:48 51.98209 0.13520 4991 ft 267 kts 281°
2026-05-05 16:48 51.98520 0.10547 4990 ft 267 kts 282°
2026-05-05 16:48 51.98828 0.07569 4985 ft 268 kts 278°
2026-05-05 16:49 51.98856 0.04548 4986 ft 269 kts 267°
2026-05-05 16:49 51.98664 0.01530 4986 ft 269 kts 265°
2026-05-05 16:49 51.98429 -0.01485 4974 ft 270 kts 264°
2026-05-05 16:49 51.98190 -0.04512 4977 ft 271 kts 265°
2026-05-05 16:50 51.97953 -0.07557 4978 ft 272 kts 265°
2026-05-05 16:50 51.97718 -0.10598 5022 ft 273 kts 264°
2026-05-05 16:50 51.97484 -0.13629 5559 ft 275 kts 265°
2026-05-05 16:50 51.97248 -0.16701 6528 ft 273 kts 264°
2026-05-05 16:51 51.97013 -0.19747 7477 ft 273 kts 264°
2026-05-05 16:51 51.96777 -0.22809 8367 ft 274 kts 265°
2026-05-05 16:51 51.96539 -0.25890 9257 ft 277 kts 265°
2026-05-05 16:51 51.96298 -0.29009 10112 ft 280 kts 264°
2026-05-05 16:52 51.96049 -0.32223 10572 ft 298 kts 264°
2026-05-05 16:52 51.95781 -0.35687 10847 ft 320 kts 264°
2026-05-05 16:52 51.95494 -0.39383 11140 ft 341 kts 263°
2026-05-05 16:52 51.95185 -0.43305 11444 ft 360 kts 263°
2026-05-05 16:53 51.94952 -0.47409 11971 ft 370 kts 270°
2026-05-05 16:53 51.95242 -0.51566 12680 ft 374 kts 284°
2026-05-05 16:53 51.96237 -0.55465 13371 ft 378 kts 301°
2026-05-05 16:53 51.97964 -0.58699 14042 ft 384 kts 318°
2026-05-05 16:54 52.00096 -0.61379 14581 ft 391 kts 324°
2026-05-05 16:54 52.02399 -0.63764 15186 ft 396 kts 328°
2026-05-05 16:54 52.04791 -0.66019 15813 ft 400 kts 329°
2026-05-05 16:54 52.07225 -0.68250 16448 ft 403 kts 329°
2026-05-05 16:55 52.09671 -0.70508 17086 ft 406 kts 329°
2026-05-05 16:55 52.12126 -0.72821 17685 ft 410 kts 328°
2026-05-05 16:55 52.14593 -0.75195 18239 ft 414 kts 328°
2026-05-05 16:55 52.17079 -0.77626 18734 ft 418 kts 328°
2026-05-05 16:56 52.19572 -0.80086 19268 ft 420 kts 328°
2026-05-05 16:56 52.22075 -0.82569 19798 ft 422 kts 327°
2026-05-05 16:56 52.24592 -0.85070 20297 ft 425 kts 327°
2026-05-05 16:56 52.27127 -0.87591 20803 ft 428 kts 327°
2026-05-05 16:57 52.29678 -0.90128 21304 ft 431 kts 326°
2026-05-05 16:57 52.32246 -0.92684 21786 ft 434 kts 327°
2026-05-05 16:57 52.34833 -0.95263 22295 ft 437 kts 326°
2026-05-05 16:57 52.37436 -0.97859 22775 ft 440 kts 326°
2026-05-05 16:58 52.40058 -1.00478 23232 ft 444 kts 326°
2026-05-05 16:58 52.42671 -1.03091 23622 ft 447 kts 326°
2026-05-05 16:58 52.45335 -1.05758 23985 ft 450 kts 326°
2026-05-05 16:58 52.48017 -1.08447 24343 ft 453 kts 326°
2026-05-05 16:59 52.50720 -1.11163 24692 ft 456 kts 326°
2026-05-05 16:59 52.53432 -1.13894 25043 ft 459 kts 326°
2026-05-05 16:59 52.56162 -1.16649 25377 ft 462 kts 326°
2026-05-05 16:59 52.58907 -1.19420 25718 ft 464 kts 326°
2026-05-05 17:00 52.61667 -1.22208 26153 ft 464 kts 326°
2026-05-05 17:00 52.64415 -1.24987 26626 ft 463 kts 326°
2026-05-05 17:00 52.67154 -1.27761 27069 ft 462 kts 326°
2026-05-05 17:00 52.69895 -1.30541 27485 ft 462 kts 326°
2026-05-05 17:01 52.72628 -1.33319 27917 ft 462 kts 326°
2026-05-05 17:01 52.75358 -1.36100 28322 ft 461 kts 325°
2026-05-05 17:01 52.78084 -1.38882 28773 ft 460 kts 326°
2026-05-05 17:01 52.80800 -1.41657 29199 ft 459 kts 326°
2026-05-05 17:02 52.83511 -1.44431 29578 ft 458 kts 326°
2026-05-05 17:02 52.86226 -1.47214 29940 ft 458 kts 326°
2026-05-05 17:02 52.88934 -1.49993 30269 ft 458 kts 326°
2026-05-05 17:02 52.91639 -1.52775 30628 ft 456 kts 327°
2026-05-05 17:03 52.94314 -1.55530 31104 ft 451 kts 327°
2026-05-05 17:03 52.96974 -1.58272 31425 ft 450 kts 327°
2026-05-05 17:03 52.99633 -1.61017 31686 ft 450 kts 327°
2026-05-05 17:03 53.02292 -1.63766 31940 ft 451 kts 327°
2026-05-05 17:04 53.07904 -1.68440 31994 ft 451 kts 337°
2026-05-05 17:04 53.13755 -1.72234 31991 ft 451 kts 339°
2026-05-05 17:05 53.19651 -1.75871 31999 ft 452 kts 339°
2026-05-05 17:05 53.25543 -1.79500 32002 ft 451 kts 339°
2026-05-05 17:06 53.31429 -1.83161 32003 ft 452 kts 339°
2026-05-05 17:06 53.37316 -1.86847 32009 ft 451 kts 339°
2026-05-05 17:07 53.43203 -1.90547 32016 ft 452 kts 338°
2026-05-05 17:07 53.49084 -1.94253 32015 ft 451 kts 338°
2026-05-05 17:08 53.54966 -1.97971 32018 ft 452 kts 339°
2026-05-05 17:08 53.60842 -2.01695 32019 ft 452 kts 338°
2026-05-05 17:09 53.66718 -2.05432 32019 ft 452 kts 339°
2026-05-05 17:09 53.72596 -2.09176 32032 ft 451 kts 338°
2026-05-05 17:10 53.78452 -2.13027 32021 ft 452 kts 336°
2026-05-05 17:10 53.84244 -2.16992 32023 ft 452 kts 336°
2026-05-05 17:11 53.89126 -2.20355 32024 ft 452 kts 336°
2026-05-05 17:11 53.95901 -2.25021 32026 ft 452 kts 336°
2026-05-05 17:12 54.00769 -2.28422 32026 ft 451 kts 331°
2026-05-05 17:12 54.06315 -2.33389 32023 ft 450 kts 329°
2026-05-05 17:13 54.11812 -2.38505 32023 ft 450 kts 328°
2026-05-05 17:13 54.17304 -2.43657 32026 ft 450 kts 328°
2026-05-05 17:14 54.22754 -2.48791 32041 ft 450 kts 328°
2026-05-05 17:14 54.28233 -2.53971 32025 ft 450 kts 328°
2026-05-05 17:15 54.33709 -2.59163 32025 ft 450 kts 327°
2026-05-05 17:15 54.39187 -2.64373 32026 ft 450 kts 327°
2026-05-05 17:16 54.44664 -2.69598 32029 ft 449 kts 327°
2026-05-05 17:16 54.50108 -2.74808 32040 ft 447 kts 327°
2026-05-05 17:17 54.55529 -2.80012 32030 ft 446 kts 327°
2026-05-05 17:17 54.60953 -2.85236 32034 ft 446 kts 327°
2026-05-05 17:18 54.63661 -2.87850 31892 ft 447 kts 327°
2026-05-05 17:18 54.66376 -2.90474 31113 ft 449 kts 327°
2026-05-05 17:18 54.69076 -2.93090 30287 ft 451 kts 327°
2026-05-05 17:18 54.71858 -2.95788 29351 ft 453 kts 327°
2026-05-05 17:19 54.74566 -2.98419 28471 ft 453 kts 328°
2026-05-05 17:19 54.77309 -3.01086 27640 ft 451 kts 328°
2026-05-05 17:19 54.80049 -3.03754 26770 ft 452 kts 328°
2026-05-05 17:19 54.82832 -3.06471 26224 ft 455 kts 328°
2026-05-05 17:20 54.85553 -3.09132 25568 ft 457 kts 328°
2026-05-05 17:20 54.88331 -3.11852 25070 ft 459 kts 328°
2026-05-05 17:20 54.91112 -3.14581 24629 ft 460 kts 328°
2026-05-05 17:20 54.93933 -3.17352 24184 ft 459 kts 328°
2026-05-05 17:21 54.96663 -3.20038 23755 ft 456 kts 328°
2026-05-05 17:21 54.99417 -3.22752 23247 ft 452 kts 328°
2026-05-05 17:21 55.02143 -3.25441 22814 ft 448 kts 328°
2026-05-05 17:22 55.07517 -3.30759 21964 ft 442 kts 328°
2026-05-05 17:22 55.10182 -3.33401 21532 ft 439 kts 328°
2026-05-05 17:22 55.12827 -3.36027 21112 ft 436 kts 328°
2026-05-05 17:22 55.15458 -3.38643 20689 ft 433 kts 328°
2026-05-05 17:23 55.18062 -3.41237 20276 ft 430 kts 328°
2026-05-05 17:23 55.20657 -3.43825 19982 ft 428 kts 328°
2026-05-05 17:23 55.23239 -3.46405 19162 ft 427 kts 328°
2026-05-05 17:23 55.25803 -3.48971 18414 ft 422 kts 328°
2026-05-05 17:24 55.28332 -3.51504 17691 ft 415 kts 328°
2026-05-05 17:24 55.30818 -3.53998 17044 ft 407 kts 328°
2026-05-05 17:24 55.33258 -3.56452 16406 ft 402 kts 328°
2026-05-05 17:24 55.35684 -3.58894 15795 ft 400 kts 328°
2026-05-05 17:25 55.38088 -3.61318 15172 ft 396 kts 328°
2026-05-05 17:25 55.39667 -3.62911 14766 ft 394 kts 328°
2026-05-05 17:25 55.42823 -3.66101 14027 ft 385 kts 328°
2026-05-05 17:25 55.45100 -3.68403 13682 ft 371 kts 328°
2026-05-05 17:26 55.47303 -3.70635 13218 ft 361 kts 328°
2026-05-05 17:26 55.49457 -3.72822 12690 ft 353 kts 328°
2026-05-05 17:26 55.51569 -3.74966 12132 ft 347 kts 328°
2026-05-05 17:26 55.53639 -3.77072 11688 ft 339 kts 328°
2026-05-05 17:27 55.55640 -3.79111 11457 ft 325 kts 328°
2026-05-05 17:27 55.57553 -3.81059 11281 ft 311 kts 328°
2026-05-05 17:27 55.59384 -3.82928 11092 ft 297 kts 328°
2026-05-05 17:27 55.61136 -3.84719 10931 ft 285 kts 328°
2026-05-05 17:28 55.62800 -3.86423 10625 ft 278 kts 328°
2026-05-05 17:28 55.64503 -3.88172 10038 ft 282 kts 328°
2026-05-05 17:28 55.66217 -3.89933 9365 ft 286 kts 328°
2026-05-05 17:28 55.67925 -3.91689 8692 ft 289 kts 328°
2026-05-05 17:29 55.69621 -3.93620 8041 ft 290 kts 317°
2026-05-05 17:29 55.70873 -3.96328 7767 ft 278 kts 303°
2026-05-05 17:29 55.71868 -3.99166 7627 ft 264 kts 301°
2026-05-05 17:29 55.72786 -4.01898 7445 ft 253 kts 301°
2026-05-05 17:30 55.73666 -4.04542 7197 ft 244 kts 301°
2026-05-05 17:30 55.74510 -4.07074 6901 ft 235 kts 301°
2026-05-05 17:30 55.75350 -4.09583 6304 ft 239 kts 301°
2026-05-05 17:30 55.76203 -4.12119 5936 ft 241 kts 301°
2026-05-05 17:31 55.77065 -4.14682 5817 ft 242 kts 301°
2026-05-05 17:31 55.77928 -4.17249 5713 ft 242 kts 301°
2026-05-05 17:31 55.78790 -4.19819 5590 ft 242 kts 302°
2026-05-05 17:31 55.79650 -4.22382 5459 ft 241 kts 302°
2026-05-05 17:32 55.80511 -4.24953 5328 ft 241 kts 302°
2026-05-05 17:32 55.81370 -4.27520 5197 ft 242 kts 302°
2026-05-05 17:32 55.82233 -4.30103 5074 ft 243 kts 302°
2026-05-05 17:32 55.83096 -4.32688 4923 ft 243 kts 302°
2026-05-05 17:33 55.83963 -4.35285 4807 ft 244 kts 302°
2026-05-05 17:33 55.84826 -4.37889 4670 ft 244 kts 300°
2026-05-05 17:33 55.85438 -4.40703 4537 ft 246 kts 280°
2026-05-05 17:33 55.85318 -4.43727 4416 ft 249 kts 250°
2026-05-05 17:34 55.84373 -4.46263 4282 ft 248 kts 220°
2026-05-05 17:34 55.82903 -4.47840 4152 ft 247 kts 203°
2026-05-05 17:34 55.81323 -4.49037 4013 ft 246 kts 201°
2026-05-05 17:34 55.79738 -4.50177 3876 ft 246 kts 200°
2026-05-05 17:35 55.78160 -4.51321 3738 ft 244 kts 200°
2026-05-05 17:35 55.76614 -4.52456 3617 ft 244 kts 199°
2026-05-05 17:35 55.75047 -4.53614 3495 ft 243 kts 200°
2026-05-05 17:35 55.73487 -4.54774 3336 ft 243 kts 199°
2026-05-05 17:36 55.71931 -4.55934 3177 ft 242 kts 200°
2026-05-05 17:36 55.70400 -4.57198 3008 ft 244 kts 209°
2026-05-05 17:36 55.69190 -4.59287 2892 ft 247 kts 239°
2026-05-05 17:36 55.68748 -4.62182 2794 ft 246 kts 273°
2026-05-05 17:37 55.69232 -4.65041 2705 ft 243 kts 305°
2026-05-05 17:37 55.69978 -4.66480 2640 ft 229 kts 327°
2026-05-05 17:37 55.71841 -4.67604 2612 ft 200 kts
2026-05-05 17:37 55.73136 -4.67381 2569 ft 175 kts 15°
2026-05-05 17:38 55.74252 -4.66725 2536 ft 171 kts 32°
2026-05-05 17:38 55.75229 -4.65492 2495 ft 173 kts 46°
2026-05-05 17:38 55.76093 -4.63985 2443 ft 174 kts 49°
2026-05-05 17:38 55.76931 -4.62431 2390 ft 175 kts 49°
2026-05-05 17:39 55.77772 -4.60868 2387 ft 174 kts 50°
2026-05-05 17:39 55.78607 -4.59324 2337 ft 171 kts 48°
2026-05-05 17:39 55.79414 -4.57837 2149 ft 165 kts 49°
2026-05-05 17:39 55.80199 -4.56375 1893 ft 160 kts 50°
2026-05-05 17:40 55.80950 -4.54975 1671 ft 156 kts 50°
2026-05-05 17:40 55.81671 -4.53632 1491 ft 146 kts 50°
2026-05-05 17:40 55.82347 -4.52373 1253 ft 135 kts 48°
2026-05-05 17:40 55.82986 -4.51181 1059 ft 130 kts 49°
2026-05-05 17:41 55.83602 -4.50031 868 ft 130 kts 50°
2026-05-05 17:41 55.84222 -4.48876 689 ft 128 kts 50°
2026-05-05 17:41 55.84836 -4.47732 487 ft 127 kts 49°
2026-05-05 17:41 55.85446 -4.46594 359 ft 128 kts 47°
2026-05-05 17:42 55.86061 -4.45444 167 ft 128 kts 47°
2026-05-05 17:42 55.86662 -4.44318 53 ft 120 kts 49°
2026-05-05 17:42 55.87180 -4.43349 35 ft 86 kts 47°
2026-05-05 17:42 55.87474 -4.42799 33 ft 54 kts 46°
2026-05-05 17:43 55.87679 -4.42424 32 ft 37 kts 45°
2026-05-05 17:43 55.87854 -4.42090 28 ft 36 kts 46°
2026-05-05 17:43 55.87917 -4.41925 28 ft 9 kts 102°
2026-05-05 17:43 55.87872 -4.41852 30 ft 13 kts 161°
2026-05-05 17:44 55.87769 -4.41882 26 ft 14 kts 211°
2026-05-05 17:44 55.87707 -4.41992 26 ft 13 kts 226°
2026-05-05 17:44 55.87641 -4.42114 27 ft 16 kts 226°
2026-05-05 17:44 55.87528 -4.42325 30 ft 28 kts 227°
2026-05-05 17:45 55.87395 -4.42569 30 ft 27 kts 215°
2026-05-05 17:45 55.87225 -4.42697 30 ft 26 kts 202°
2026-05-05 17:45 55.87056 -4.42809 32 ft 25 kts 199°
2026-05-05 17:45 55.86918 -4.42917 34 ft 16 kts 206°
2026-05-05 17:46 55.86842 -4.43024 35 ft 11 kts 259°
2026-05-05 17:46 55.86822 -4.43184 35 ft 15 kts 255°
2026-05-05 17:46 55.86751 -4.43263 34 ft 14 kts 184°
2026-05-05 17:46 55.86674 -4.43234 33 ft 10 kts 163°
2026-05-05 17:47 55.86652 -4.43243 33 ft 2 kts 242°
2026-05-05 17:47 55.86646 -4.43264 32 ft 3 kts 248°
2026-05-05 17:47 55.86641 -4.43287 34 ft 0 kts 251°